Starlink 5864

operational
NORAD ID: 55940 Int'l Des: 2023-037 Owner: SPXS Country: US Constellation: starlink
LEOCIRCULAR

关于 Starlink 5864

正在加载描述...

实时位置

正在加载3D地球...

即将过境

高度历史

Altitude vs Time

uPlot chart will show altitude changes over time

两行轨道根数

1 55940U 23037AC 26072.91763503 .00000729 00000-0 68874-4 0 9994
2 55940 69.9977 273.7887 0002522 270.4321 89.6549 14.98336876164618
Epoch: Mar 13, 2026 • Age: 28 hours

当前状态

高度 591.6 km
速度 7.56 km/s
星下点 -56.03°S, 6.49°E
发射日期 Mar 17, 2023
运行时间 2.9 years
类型 internet

技术详情

分类 Payload
质量 305.00 kg
干质量 290.00 kg
总质量 305.00 kg
长度 0.20 m
直径 2.80 m
跨度 9.00 m
形状 Box + pan
制造商 SPXS
平台类型 Starlink
阶段状态 In Orbit
所有者/国家 SPXS/US

大型星座

Loading constellations...